Campo, CA

4:36 PM PDT on October 13, 2019 (GMT -0700)
Campo

Weather History for KCZZ - September, 2019

Change the Weather History Date:

Saturday, September 21, 2019

  Actual Average Record
Temperature  
Mean Temperature 65 °F 68 °F  
Max Temperature 87 °F 88 °F 99 °F (2003)
Min Temperature 43 °F 48 °F 33 °F (1986)
Degree Days  
Heating Degree Days 0 1  
Month to date heating degree days 20 19  
Since 1 July heating degree days 26 33  
Cooling Degree Days 0 4  
Month to date cooling degree days 143 131  
Year to date cooling degree days 789 781  
Growing Degree Days 16 (Base 50)    
Moisture  
Dew Point 30 °F    
Average Humidity 41    
Maximum Humidity 71    
Minimum Humidity 10    
Precipitation  
Precipitation 0.00 in 0.01 in 0.09 in (2016)
Month to date precipitation 0.21 0.24  
Year to date precipitation 13.03 11.41  
Sea Level Pressure  
Sea Level Pressure 29.83 in    
Wind  
Wind Speed 8 mph (NE)    
Max Wind Speed 20 mph    
Max Gust Speed 27 mph    
T = Trace of Precipitation, MM = Missing Value Source: NWS Daily Summary

Daily Weather History Graph

Daily Weather History Graph

Search for Another Location

Airport or City:

Astronomy

Sep. 21, 2019 Rise Set
Actual Time 6:33 AM PDT 6:44 PM PDT
Civil Twilight 6:08 AM PDT 7:08 PM PDT
Nautical Twilight 5:40 AM PDT 7:37 PM PDT
Astronomical Twilight 5:11 AM PDT 8:06 PM PDT
Moon 11:46 PM PDT (9/21) 1:23 PM PDT (9/21)
Length of Visible Light 12h 59m
Length of Day
12h 10m
Waning Gibbous, 53% of the Moon is Illuminated
Sep 21
Waning Gibbous
Sep 21
Last Quarter
Sep 28
New
Oct 5
First Quarter
Oct 13
Full

Hourly Weather History & Observations

Time (PDT) Temp. Windchill Dew Point Humidity Pressure Visibility Wind Dir Wind Speed Gust Speed Precip Events Conditions
12:52 AM 50.0 °F - 39.9 °F 68% 29.83 in - NNE 5.8 mph - N/A   Unknown
1:52 AM 48.9 °F - 39.0 °F 69% 29.83 in - ENE 6.9 mph - N/A   Unknown
2:52 AM 48.9 °F - 37.0 °F 64% 29.84 in - NE 5.8 mph - N/A   Unknown
3:52 AM 48.0 °F - 35.1 °F 61% 29.83 in - NE 5.8 mph - N/A   Unknown
4:52 AM 46.9 °F - 36.0 °F 66% 29.84 in - NE 8.1 mph - N/A   Unknown
5:52 AM 48.0 °F - 34.0 °F 58% 29.85 in - NNE 3.5 mph - N/A   Unknown
6:52 AM 46.0 °F 43.9 °F 33.1 °F 61% 29.86 in - NE 4.6 mph - N/A   Unknown
7:52 AM 54.0 °F - 37.9 °F 55% 29.86 in - Calm Calm - N/A   Unknown
8:52 AM 66.9 °F - 37.9 °F 34% 29.86 in - Calm Calm - N/A   Unknown
9:52 AM 81.0 °F - 28.9 °F 15% 29.84 in - ENE 13.8 mph - N/A   Unknown
10:52 AM 82.9 °F - 28.0 °F 14% 29.83 in - NE 12.7 mph 24.2 mph N/A   Unknown
11:52 AM 84.9 °F - 27.0 °F 12% 29.83 in - NE 13.8 mph 23.0 mph N/A   Unknown
12:52 PM 84.9 °F - 25.0 °F 11% 29.81 in - NE 16.1 mph 23.0 mph N/A   Unknown
1:52 PM 86.0 °F - 24.1 °F 10% 29.80 in - NE 13.8 mph 19.6 mph N/A   Unknown
2:52 PM 86.0 °F - 24.1 °F 10% 29.78 in - ENE 15.0 mph 21.9 mph N/A   Unknown
3:52 PM 86.0 °F - 24.1 °F 10% 29.77 in - ENE 13.8 mph 20.7 mph N/A   Unknown
4:52 PM 84.9 °F - 26.1 °F 12% 29.77 in - East 16.1 mph - N/A   Unknown
5:52 PM 82.0 °F - 27.0 °F 13% 29.79 in - ENE 10.4 mph - N/A   Unknown
6:52 PM 75.9 °F - 27.0 °F 16% 29.81 in - NE 8.1 mph - N/A   Unknown
7:52 PM 71.1 °F - 25.0 °F 18% 29.83 in - NNE 3.5 mph - N/A   Unknown
8:52 PM 66.0 °F - 25.0 °F 21% 29.84 in - NNE 5.8 mph - N/A   Unknown
9:52 PM 59.0 °F - 24.1 °F 26% 29.85 in - NNE 3.5 mph - N/A   Unknown
10:52 PM 55.9 °F - 24.1 °F 29% 29.86 in - NE 4.6 mph - N/A   Unknown
11:52 PM 55.9 °F - 23.0 °F 28% 29.84 in - NNE 5.8 mph - N/A   Unknown